This demonstration page uses our WeatherBlox Daily Observations layout. Learn more.

Left ArrowRight Arrow

41.55636, -103.73856

Hourly Observations for July 28, 2018

Temp ( °F °C ) Dew Point ( °F °C ) Humidity (%) Winds ( mph kmh ) Pressure ( in mb ) Visibility ( mi km ) Precip ( " mm )
12:58 am 00:58 Mostly Cloudy 55 12.7 53 11.7 94 94 ENE 6 9 30.15 1021 10 16 N/A
1:58 am 01:58 Cloudy 57 13.9 56 13.1 95 95 E 7 11 30.14 1021 10 16 N/A
2:58 am 02:58 Mostly Cloudy with Fog 60 15.3 58 14.7 96 96 SE 7 11 30.12 1020 3 5 N/A
3:58 am 03:58 Mostly Cloudy with Mist and Fog 59 15.2 58 14.6 96 96 SE 8 13 30.12 1020 1 1 N/A
4:58 am 04:58 Cloudy with Drizzle 60 15.3 58 14.7 96 96 E 6 9 30.13 1020 2 3 N/A
5:58 am 05:58 Mostly Cloudy with Mist and Fog 57 13.9 56 13.4 97 97 SSE 8 13 30.12 1020 1 2 0.01 0.25
6:58 am 06:58 Mostly Sunny 56 13.6 56 13.1 97 97 S 5 7 30.14 1021 10 16 N/A
7:58 am 07:58 Cloudy 58 14.5 56 13.5 94 94 S 3 6 30.15 1021 10 16 N/A
8:58 am 08:58 Mostly Cloudy 62 16.5 57 13.7 84 84 SSW 7 11 30.13 1020 10 16 N/A
9:58 am 09:58 Partly Cloudy 65 18.1 57 13.9 77 77 SSW 7 11 30.13 1020 10 16 N/A
10:58 am 10:58 Mostly Cloudy 68 19.8 58 14.5 72 72 W 8 13 30.12 1020 10 16 N/A
11:58 am 11:58 Mostly Sunny 73 22.6 59 15 62 62 SE 8 13 30.08 1019 10 16 N/A
12:58 pm 12:58 Mostly Sunny 75 24 57 14 54 54 SSW 6 9 30.08 1019 10 16 N/A
1:58 pm 13:58 Sunny 76 24.4 56 13.4 50 50 SSE 12 19 30.04 1017 10 16 N/A
2:58 pm 14:58 Sunny 78 25.7 55 13 45 45 S 8 13 30.02 1017 10 16 N/A
3:58 pm 15:58 Mostly Sunny 79 26.2 56 13.4 45 45 SSE 12 19 29.99 1016 10 16 N/A
4:58 pm 16:58 Mostly Cloudy with Light Showers and Scattered Storms 76 24.2 57 14 53 53 ESE 15 24 29.98 1015 9 14 N/A
5:58 pm 17:58 Mostly Sunny 60 15.5 54 12 80 80 S 13 20 30.09 1019 10 16 0.69 17.53
6:58 pm 18:58 Mostly Cloudy 64 17.8 60 15.7 88 88 SSE 7 11 30.05 1018 10 16 N/A
7:58 pm 19:58 Cloudy with Strong Thunderstorms 64 17.5 55 12.6 73 73 WSW 29 46 30.14 1021 2 3 0.28 7.11
8:58 pm 20:58 Windy with Rain Showers and Scattered Storms 60 15.8 58 14.3 91 91 NE 21 33 30.14 1021 10 16 0.20 5.08
9:58 pm 21:58 Mostly Cloudy 57 14 55 12.5 91 91 ESE 16 26 30.15 1021 10 16 0.55 13.97
10:58 pm 22:58 Clear 56 13.4 54 12.3 93 93 SSE 8 13 30.13 1020 10 16 N/A
11:58 pm 23:58 Clear 55 13 54 12.3 96 96 SSE 6 9 30.11 1020 10 16 N/A

Powered by AerisWeather